Regional Weather Roundup
Issued by NWS

Home | Current Version | Previous Version | Text Only | Print | Product List | Glossary On
Versions: 1 2 3 4 5 6 7 8 9 10 11 12 13 14 15 16 17 18 19 20 21 22 23 24 25 26 27 28 29 30 31 32 33 34 35 36 37 38 39 40 41 42 43 44 45 46 47 48 49 50
000
ASUS44 KJAN 042310
RWRMS

MISSISSIPPI HOURLY WEATHER ROUNDUP
NATIONAL WEATHER SERVICE JACKSON MS
500 PM CST SUN DEC 04 2016

NOTE: "FAIR: INDICATES FEW OR NO CLOUDS BELOW 12,000 FEET WITH NO
SIGNIFICANT WEATHER AND/OR OBSTRUCTIONS TO VISIBILITY.

MSZ001>002-007>008-010>013-018>021-025>028-034>036-050000-
NORTHWEST MISSISSIPPI

CITY           SKY/WX    TMP DP  RH WIND       PRES   REMARKS
CLEVELAND      CLOUDY    48  48 100 N8        30.00S
GREENWOOD      CLOUDY    49  45  86 N5        30.00R
GREENVILLE     CLOUDY    48  44  86 N7        30.00R
OXFORD         CLOUDY    46  45  93 NW7       30.01R
WINONA         CLOUDY    47  47  97 NW3       29.99S
$$

MSZ003>006-009-014>017-022>024-029>033-037>039-050000-
NORTHEAST MISSISSIPPI

CITY           SKY/WX    TMP DP  RH WIND       PRES   REMARKS
COLUMBUS AFB   CLOUDY    52  50  93 NW6       29.98R
STARKVILLE     FOG       50  50 100 CALM      30.00R VSB 3/4
TUPELO         CLOUDY    50  47  89 NW3       29.98R
$$

MSZ040-058-050000-
CENTRAL MISSISSIPPI

CITY           SKY/WX    TMP DP  RH WIND       PRES   REMARKS
JACKSON INTL   LGT RAIN  51  49  92 NW9       29.99R
JACKSON HAWKNS LGT RAIN  50  48  93 NW7       29.98S
MADISON        CLOUDY    48  46  93 CALM      29.97F
MERIDIAN KEY   LGT RAIN  55  52  89 CALM      29.95F FOG
MERIDIAN NAS   LGT RAIN  53  49  86 NW6       29.96F
VICKSBURG VKS  CLOUDY    50  48  93 VRB6G14   29.97F
$$

MSZ059>079-050000-
SOUTH MISSISSIPPI

CITY           SKY/WX    TMP DP  RH WIND       PRES   REMARKS
COLUMBIA       CLOUDY    57  55  94 NW5G12    29.99R
HATTIESBURG    LGT RAIN  59  57  93 NW7       29.95R
LAUREL         CLOUDY    56  56 100 N6        29.95S
MCCOMB         LGT RAIN  55  52  89 N7        29.96S
NATCHEZ        CLOUDY    50  46  87 N7        29.97S
PINE BELT      CLOUDY    57  54  88 N6        29.96R
$$

MSZ080>082-050000-
COASTAL MISSISSIPPI

CITY           SKY/WX    TMP DP  RH WIND       PRES   REMARKS
BAY ST LOUIS   MOCLDY    61  57  88 N7        29.91R
BILOXI         CLOUDY    65  65 100 VRB5      29.90S
PASCAGOULA     CLOUDY    66  63  90 N8        29.92R
GULFPORT       CLOUDY    65  63  93 N13       29.90S
$$

LAZ007>009-015>016-023>026-050000-
NORTHEAST LOUISIANA

CITY           SKY/WX    TMP DP  RH WIND       PRES   REMARKS
BASTROP        CLOUDY    48  47  97 NW3       30.04R
TALLULAH/VBURG CLOUDY    49  47  93 VRB5      29.99F
VIDALIA        LGT RAIN  50  48  95 N6        30.01S
$$



USA.gov is the U.S. government's official web portal to all federal, state and local government web resources and services.